[[{"header":{"parameterUnit":"m.s-1","parameterCategory":1,"la1":30.2991,"la2":30.254,"lo1":-89.0895,"lo2":-89.0444,"dy":0.0017,"dx":0.0017,"nx":28,"ny":28,"refTime":"2025-07-23T03:00:00:Z","depth":0,"parameterNumber":2,"parameterNumberName":"U-component_of_WINDS"},"data":[0,0,0,0,0,0,0,0,0,0,0,0,0,0,0,0,0,0,0,0,0,0,0,0,0,0,0,0,0,0,0,0,0,0,0,0,0,0,0,0,0,0,0,0,0,0,0,0,0,0,0,0,0,0,0,0,0,0,3.1897,3.1897,0,3.1966,3.1966,3.1967,3.1849,3.1845,3.1841,3.1838,3.1912,3.1918,3.1924,0,0,0,0,0,0,0,0,0,0,0,0,0,3.1668,3.1673,3.1897,3.1898,3.1898,3.1966,3.1966,3.1967,3.185,3.1845,3.184,3.1836,3.1911,3.1917,3.1924,0,0,0,0,0,0,0,0,0,0,0,0,0,3.1756,3.1675,3.1897,3.1848,3.1844,3.1965,3.1967,3.1968,3.1851,3.1845,3.1839,3.1834,3.1908,3.1917,3.1925,3.2098,0,0,3.1951,3.1955,0,0,0,0,0,0,0,0,3.1751,3.1764,3.1854,3.1851,3.1847,3.1893,3.1913,3.2012,3.1853,3.1849,3.1838,3.1831,3.1911,3.1919,3.1945,3.2102,3.2105,3.1952,3.1957,3.1961,3.1963,0,0,0,0,0,0,0,3.1745,3.176,3.1924,3.1856,3.1852,3.1824,3.183,3.1931,3.1913,3.1849,3.184,3.185,3.1908,3.1937,3.1946,3.2106,3.1952,3.196,3.1965,3.1968,3.2411,3.2418,0,0,0,0,0,0,3.1744,3.1756,3.1922,3.1926,3.1783,3.1833,3.184,3.1884,3.1911,3.191,3.1855,3.1844,3.1926,3.1936,3.1948,3.2155,3.1961,3.1969,3.1974,3.2405,3.2413,3.242,0,0,0,0,0,0,3.174,3.176,3.1919,3.1839,3.1857,3.1843,3.1895,3.1889,3.1918,3.1916,3.1912,3.1888,3.1921,3.1936,3.2062,3.2156,3.1973,3.1981,3.2397,3.2407,3.2416,3.2569,0,0,0,0,0,0,3.1734,3.1759,3.1824,3.1841,3.1862,3.2031,3.19,3.1895,3.1933,3.1919,3.1946,3.1945,3.1918,3.205,3.2071,3.2164,3.1987,3.2389,3.2402,3.2413,3.2556,3.2583,3.2606,0,0,0,0,0,3.1726,3.1864,3.1827,3.1848,3.1942,3.2036,3.2048,3.2013,3.194,3.2006,3.2005,3.1944,3.2142,3.2064,3.2086,3.2184,3.2382,3.2398,3.2412,3.2544,3.2578,3.2606,0,0,0,0,0,0,3.1859,3.1865,3.1825,3.1972,3.2005,3.2016,3.2098,3.2049,3.2104,3.2089,3.2044,3.2051,3.2188,3.2198,3.2111,3.2354,3.225,3.227,3.2343,3.2375,3.24,3.2395,3.1995,0,0,0,0,0,3.1905,3.198,3.1982,3.2112,3.213,3.2112,3.2152,3.2122,3.2154,3.2167,3.2175,3.221,3.228,3.2328,3.2392,3.2556,3.2562,3.2634,3.266,3.268,3.2699,3.279,3.2823,3.2469,3.2469,3.2468,0,0,3.2002,3.2015,3.2065,3.214,3.2161,3.2242,3.2124,3.2214,3.2274,3.2181,3.2301,3.2309,3.2345,3.2491,3.2556,3.2504,3.2798,3.2699,3.2716,3.2723,3.2808,3.2842,3.2872,3.2479,3.2477,3.2476,0,0,3.222,3.2236,3.2348,3.2372,3.2405,3.2392,3.2419,3.2439,3.244,3.2559,3.2492,3.2563,3.2684,3.2714,3.2745,3.2976,3.2922,3.2998,3.3131,3.322,3.3248,3.3272,3.3358,3.3388,3.3016,3.3016,3.3017,0,3.2337,3.2454,3.2411,3.2506,3.2542,3.2461,3.2575,3.2601,3.2655,3.2683,3.2623,3.2775,3.2793,3.2946,3.3003,3.303,3.3061,3.2995,3.3247,3.3271,3.3293,3.3374,3.3406,3.3025,3.3024,3.3023,3.3023,0,3.2597,3.268,3.2766,3.2819,3.2864,3.2969,3.2944,3.2995,3.2962,3.2956,3.308,3.3099,3.3167,3.3201,3.3169,3.3351,3.3318,3.3254,3.3148,3.3337,3.3412,3.3443,3.3039,3.3035,3.3033,3.303,0,0,3.2901,3.293,3.2963,3.2987,3.3019,3.3083,3.3185,3.325,3.3296,3.3336,3.3422,3.3527,3.3468,3.3503,3.3474,3.3552,3.3737,3.3478,3.3478,3.3528,3.3942,3.3993,3.4029,3.3701,3.3707,3.3711,3.394,0,3.312,3.3294,3.3259,3.343,3.3507,3.3432,3.3521,3.3551,3.3549,3.3615,3.3612,3.3689,3.3603,3.3625,3.3698,3.3699,3.382,3.3682,3.3783,3.3787,3.3779,3.4068,3.4121,3.4336,3.3969,3.3974,3.3978,0,3.3399,3.3449,3.3628,3.3649,3.368,3.376,3.3819,3.3882,3.3916,3.3909,3.3949,3.3906,3.4009,3.3901,3.4045,3.3951,3.3991,3.3998,3.4005,3.4015,3.3896,3.4088,3.4403,3.4437,3.4023,3.4019,3.4016,0,3.3606,3.3719,3.384,3.3863,3.389,3.3949,3.3964,3.3991,3.4034,3.4085,3.4113,3.4176,3.4211,3.4262,3.4238,3.4161,3.4388,3.4277,3.4387,3.4388,3.4439,3.4437,3.4768,3.4461,3.4461,3.446,3.4459,0,3.3856,3.3969,3.3934,3.401,3.4135,3.4095,3.422,3.4226,3.4251,3.4328,3.4266,3.434,3.4303,3.4375,3.4356,3.448,3.4495,3.4494,3.4489,3.4501,3.4502,3.4528,3.4514,3.4469,3.4467,3.4465,3.4464,0,3.411,3.4091,3.4219,3.4234,3.4241,3.4333,3.4347,3.4419,3.4411,3.4509,3.453,3.452,3.4601,3.4581,3.467,3.4658,3.4814,3.4788,3.4803,3.4798,3.491,3.4901,3.5271,3.5319,3.4979,3.4982,3.4985,0,3.4271,3.4356,3.4381,3.4427,3.4446,3.4522,3.4565,3.4529,3.4577,3.4623,3.469,3.4765,3.4824,3.4958,3.496,3.5028,3.5005,3.513,3.5015,3.5026,3.501,3.5007,3.5016,3.5154,3.5158,3.5161,3.5164,0,3.4561,3.4548,3.4611,3.4673,3.4726,3.4772,3.4813,3.4856,3.4823,3.488,3.4962,3.5008,3.5099,3.5176,3.5239,3.5256,3.5207,3.52,3.5229,3.5244,3.525,3.5252,3.4868,3.5192,3.5189,3.5187,3.5185,3.5184,3.4775,3.4848,3.4878,3.4951,3.4978,3.5019,3.5088,3.5089,3.5156,3.5227,3.5202,3.5297,3.533,3.541,3.5435,3.551,3.5463,3.5505,3.5516,3.5528,3.5543,3.5237,3.5521,3.552,3.5519,3.5518,3.5518,0,3.5064,3.5079,3.5147,3.5207,3.5266,3.5212,3.5255,3.5308,3.5392,3.5427,3.5486,3.5582,3.5657,3.5664,3.5735,3.5794,3.5774,3.5815,3.5811,3.5817,3.5579,3.5548,3.583,3.583,3.583,3.583,3.583,3.583,3.5222,3.5343,3.5334,3.547,3.5484,3.5576,3.5605,3.5643,3.5671,3.5781,3.5842,3.5846,3.5871,3.5944,3.6011,3.6011,3.6042,3.6092,3.6085,3.5864,3.5833,3.5803,3.5773,3.6098,3.6099,3.6315,3.6317,3.6319]},{"header":{"parameterUnit":"m.s-1","parameterCategory":1,"la1":30.2991,"la2":30.254,"lo1":-89.0895,"lo2":-89.0444,"dy":0.0017,"dx":0.0017,"nx":28,"ny":28,"refTime":"2025-07-23T03:00:00:Z","depth":0,"parameterNumber":3,"parameterNumberName":"V-component_of_WINDS"},"data":[0,0,0,0,0,0,0,0,0,0,0,0,0,0,0,0,0,0,0,0,0,0,0,0,0,0,0,0,0,0,0,0,0,0,0,0,0,0,0,0,0,0,0,0,0,0,0,0,0,0,0,0,0,0,0,0,0,0,-1.2304,-1.2304,0,-1.2344,-1.2345,-1.2345,-1.2364,-1.2364,-1.2364,-1.2364,-1.2403,-1.2404,-1.2405,0,0,0,0,0,0,0,0,0,0,0,0,0,-1.2241,-1.2242,-1.2304,-1.2304,-1.2305,-1.2344,-1.2345,-1.2345,-1.2364,-1.2364,-1.2364,-1.2364,-1.2403,-1.2404,-1.2405,0,0,0,0,0,0,0,0,0,0,0,0,0,-1.2274,-1.2243,-1.2304,-1.2319,-1.2321,-1.2344,-1.2345,-1.2345,-1.2364,-1.2364,-1.2364,-1.2364,-1.2402,-1.2404,-1.2405,-1.2415,0,0,-1.241,-1.2411,0,0,0,0,0,0,0,0,-1.2272,-1.2276,-1.2316,-1.2318,-1.232,-1.2349,-1.2337,-1.2369,-1.2364,-1.2348,-1.2364,-1.2364,-1.2385,-1.2388,-1.2396,-1.2417,-1.2419,-1.241,-1.2411,-1.2412,-1.2412,0,0,0,0,0,0,0,-1.2269,-1.2274,-1.232,-1.2317,-1.2319,-1.2323,-1.2328,-1.2343,-1.2366,-1.2349,-1.2351,-1.2355,-1.2386,-1.2394,-1.2397,-1.2419,-1.241,-1.2412,-1.2413,-1.2413,-1.2452,-1.2452,0,0,0,0,0,0,-1.2265,-1.2272,-1.2318,-1.2321,-1.2296,-1.2325,-1.233,-1.234,-1.2366,-1.237,-1.2355,-1.2356,-1.2391,-1.2395,-1.2398,-1.2412,-1.2412,-1.2413,-1.2414,-1.2452,-1.2452,-1.2452,0,0,0,0,0,0,-1.2264,-1.2269,-1.2317,-1.2297,-1.2304,-1.2326,-1.2337,-1.2341,-1.2349,-1.2371,-1.2374,-1.2359,-1.2391,-1.2396,-1.2411,-1.2414,-1.2414,-1.2416,-1.2452,-1.2452,-1.2452,-1.2439,0,0,0,0,0,0,-1.2262,-1.2268,-1.2273,-1.2297,-1.2305,-1.233,-1.2337,-1.2342,-1.2352,-1.2353,-1.2375,-1.2379,-1.2392,-1.2409,-1.2413,-1.2416,-1.2417,-1.2452,-1.2452,-1.2452,-1.244,-1.2439,-1.2439,0,0,0,0,0,-1.2259,-1.2267,-1.2273,-1.2278,-1.2311,-1.233,-1.2334,-1.235,-1.2352,-1.2356,-1.237,-1.2378,-1.2413,-1.241,-1.2415,-1.2418,-1.2452,-1.2452,-1.2452,-1.244,-1.2439,-1.2439,0,0,0,0,0,0,-1.2241,-1.227,-1.2277,-1.2293,-1.2309,-1.2333,-1.2339,-1.2348,-1.2363,-1.2364,-1.2381,-1.2386,-1.24,-1.2411,-1.2407,-1.243,-1.2433,-1.2434,-1.2422,-1.2422,-1.2421,-1.2418,-1.2418,0,0,0,0,0,-1.2239,-1.2253,-1.2278,-1.2289,-1.2297,-1.2317,-1.2326,-1.2336,-1.2353,-1.236,-1.2375,-1.239,-1.2405,-1.2414,-1.2428,-1.2442,-1.2447,-1.2446,-1.2446,-1.2445,-1.2446,-1.2454,-1.2454,-1.2453,-1.2453,-1.2453,0,0,-1.2235,-1.2252,-1.226,-1.2286,-1.23,-1.2313,-1.2322,-1.2336,-1.2346,-1.2362,-1.2378,-1.2389,-1.2408,-1.2422,-1.2429,-1.2432,-1.2447,-1.2445,-1.2445,-1.2446,-1.2454,-1.2454,-1.2454,-1.2453,-1.2453,-1.2453,0,0,-1.2234,-1.2249,-1.226,-1.2274,-1.2295,-1.2308,-1.2311,-1.2334,-1.2343,-1.2359,-1.2371,-1.2383,-1.2408,-1.2421,-1.243,-1.2435,-1.2443,-1.2439,-1.2436,-1.2444,-1.2444,-1.2444,-1.2446,-1.2447,-1.244,-1.244,-1.244,0,-1.2225,-1.2247,-1.2265,-1.2278,-1.2289,-1.2305,-1.2317,-1.2329,-1.2353,-1.236,-1.2362,-1.2394,-1.2407,-1.2425,-1.2427,-1.2434,-1.2438,-1.2437,-1.2443,-1.2443,-1.2444,-1.2446,-1.2446,-1.2439,-1.244,-1.244,-1.244,0,-1.2236,-1.2251,-1.2258,-1.2282,-1.2294,-1.2306,-1.2325,-1.2335,-1.2344,-1.2357,-1.2374,-1.2391,-1.2409,-1.2414,-1.2423,-1.2434,-1.2435,-1.244,-1.2443,-1.2443,-1.2445,-1.2446,-1.2439,-1.2439,-1.2439,-1.2439,0,0,-1.2224,-1.2259,-1.2261,-1.2272,-1.2297,-1.2309,-1.2322,-1.2341,-1.2349,-1.2365,-1.2377,-1.2397,-1.2403,-1.2414,-1.2424,-1.2431,-1.2434,-1.2436,-1.2436,-1.2435,-1.2447,-1.2443,-1.2444,-1.244,-1.244,-1.244,-1.2446,0,-1.2227,-1.2252,-1.2268,-1.2287,-1.2301,-1.2316,-1.2328,-1.2344,-1.2357,-1.237,-1.2383,-1.2398,-1.2404,-1.2411,-1.2418,-1.2432,-1.2437,-1.2432,-1.245,-1.2451,-1.2445,-1.2445,-1.2441,-1.2445,-1.2447,-1.2447,-1.2447,0,-1.2233,-1.225,-1.227,-1.2294,-1.2301,-1.2311,-1.233,-1.2343,-1.2361,-1.237,-1.2383,-1.2394,-1.2408,-1.2411,-1.2431,-1.2427,-1.2435,-1.2444,-1.2444,-1.2446,-1.2449,-1.2447,-1.2447,-1.2447,-1.2449,-1.2448,-1.2448,0,-1.2222,-1.225,-1.2266,-1.2276,-1.2304,-1.2311,-1.2323,-1.2341,-1.2352,-1.2368,-1.2376,-1.2393,-1.2402,-1.2416,-1.2431,-1.2432,-1.2449,-1.2453,-1.2457,-1.2456,-1.2459,-1.2459,-1.246,-1.2465,-1.2465,-1.2465,-1.2465,0,-1.2223,-1.2235,-1.2262,-1.2272,-1.2286,-1.2304,-1.2317,-1.233,-1.2347,-1.2359,-1.2373,-1.2384,-1.2404,-1.2418,-1.243,-1.2444,-1.2448,-1.2456,-1.2459,-1.2454,-1.2453,-1.246,-1.246,-1.2465,-1.2465,-1.2465,-1.2465,0,-1.2214,-1.2232,-1.2251,-1.2277,-1.2283,-1.2292,-1.2314,-1.2324,-1.2337,-1.2353,-1.2357,-1.2379,-1.2395,-1.2412,-1.2434,-1.2443,-1.2457,-1.2461,-1.2451,-1.2453,-1.2455,-1.2455,-1.2461,-1.2462,-1.2466,-1.2466,-1.2465,0,-1.2213,-1.2223,-1.225,-1.226,-1.2272,-1.2287,-1.2298,-1.2317,-1.2328,-1.2351,-1.2358,-1.2376,-1.2391,-1.2417,-1.2434,-1.2451,-1.2455,-1.2456,-1.2458,-1.2454,-1.2456,-1.2455,-1.2456,-1.2456,-1.2455,-1.2455,-1.2455,0,-1.221,-1.2219,-1.2236,-1.2255,-1.2269,-1.2285,-1.2301,-1.2308,-1.233,-1.2341,-1.2359,-1.2371,-1.2395,-1.2412,-1.2431,-1.2443,-1.2453,-1.2455,-1.2457,-1.2452,-1.2446,-1.2449,-1.2449,-1.2454,-1.2454,-1.2455,-1.2455,-1.2455,-1.2205,-1.2215,-1.2236,-1.2253,-1.2268,-1.2283,-1.2294,-1.231,-1.2325,-1.2346,-1.2356,-1.2374,-1.2393,-1.242,-1.2432,-1.2446,-1.2448,-1.2451,-1.2451,-1.2452,-1.2451,-1.2444,-1.2449,-1.2449,-1.2449,-1.2449,-1.2449,0,-1.2203,-1.2218,-1.2234,-1.2257,-1.2271,-1.228,-1.2299,-1.231,-1.2326,-1.2343,-1.2358,-1.2379,-1.2396,-1.2415,-1.2433,-1.2441,-1.2446,-1.2445,-1.2444,-1.2447,-1.2447,-1.2444,-1.2441,-1.2441,-1.2441,-1.2441,-1.2441,-1.2441,-1.2204,-1.2221,-1.2232,-1.2256,-1.2271,-1.2289,-1.2299,-1.2313,-1.2327,-1.235,-1.2365,-1.2377,-1.2395,-1.2415,-1.2431,-1.2436,-1.2442,-1.244,-1.2447,-1.2446,-1.2447,-1.2448,-1.2445,-1.2442,-1.2442,-1.2445,-1.2445,-1.2446]}]]